レモン彗星

C/2018 KJ3 ( Lemmon )

English version
Home page
Updated on May 20, 2019

---------------------------------------------------------------------

・ プロフィール

発見日 2018年5月17日
発見光度 19.9等
発見者 H. Groeller and G. J. Leonard (Mount Lemmon Survey)

・ 写真集

・ 軌道要素

Epoch 2019 Aug. 25.0 TT = JDT 2458720.5
T 2019 Sept.  9.48485 TT                                MPCW
q   3.6286821            (2000.0)            P               Q
z  +0.0011899      Peri.  217.62010     -0.42211033     -0.59328880
 +/-0.0000019      Node    91.59383     -0.57127394     +0.76116875
e   0.9956823      Incl.  136.70871     -0.70389556     -0.26197429
From 182 observations 2018 May 17-2019 Mar. 31, mean residual 0".4.

・ 星図

・ 光度変化

        m1 = 8.5 + 5 logΔ + 10.0 log r

---------------------------------------------------------------------

軌道要素はM.P.E.C. 2019-J142に掲載されたものです。
星図はステラナビゲータ Ver.10 (アストロアーツ) で作成したものです。
光度グラフはComet for Windowsで作成したものです。

---------------------------------------------------------------------

Copyright(C) Seiichi Yoshida (comet@aerith.net). All rights reserved.